{"data":{"norad_id":64044,"intl_designator":"2025-102Y","name":"STARLINK-34081","alt_names":[],"object_type":"PAYLOAD","status":"ACTIVE","operator":null,"country":"US","launch_date":"2025-05-16","launch_site_code":"AFWTR","launch_vehicle":null,"mission":null,"orbit_class":"UNKNOWN","rcs_meters":null,"size_class":null,"mass_kg":null,"dimensions":null,"purposes":["comms"],"wikipedia_slug":null,"has_3d_model":false,"image_url":null,"decayed_at":null,"tle_current":{"epoch":"2026-09-20T14:00:57.122208Z","epoch_age_seconds":136299,"freshness":"FRESH","line1":"1 64044U 25102Y   26263.58399447  .00117258  00000+0  39958-2 0  9995","line2":"2 64044  70.0047 340.7366 0002569 273.7996  86.2885 15.29778248 75149","mean_motion":15.29778248,"eccentricity":0.0002569,"inclination_deg":70.0047,"raan_deg":340.7366,"arg_perigee_deg":273.7996,"mean_anomaly_deg":86.2885,"bstar":0.0039958,"rev_number":7514,"period_min":94.131290066559,"perigee_km":474.71368444548,"apogee_km":478.23558390312,"semimajor_km":6854.6116341743,"source":"CELESTRAK","updated_at":"2026-09-21T09:00:35.190524Z"}}}